星链-31891 (STARLINK-31891 )

导读

STARLINK-31891是美国SpaceX星链互联网星座的一员,于2024年5月23日发射入轨,星链项目旨在为全球提供覆盖偏远地区的高速低延迟卫星互联网服务。该卫星部署在近地轨道,延续星链批量部署策略,进一步拓展全球卫星互联网的覆盖范围与服务容量,助力星链星座组网完成。

Basic Information
目录编号:
59854
目录名称:
STARLINK-31891
国际标识:
2024-097V
轨道中心:
EARTH
卫星名称:
星链-31891
卫星全名:
星链-31891 (STARLINK-31891 )
卫星状态:
在轨 (已飞行834 天)
发射日期:
2024-05-23 UTC
国别 :
美国 (US)
星等 :
--
Orbit Information
数据来源 国际轨道数据
星历时间: 2026-09-03T16:16:05+0800
1天前
查看轨道信息
半长轴: 6861.193km
偏心率: 0.0001179
轨道倾角: 43.004°
近地点辐角 269.010°
升交点赤经 351.331°
平近点角 91.061°
近地点: 482.247km
远地点: 483.865km
周期: 94.267分钟
每日圈数: 15.27578
Detailed Information
固有亮度:
5
最大亮度:
1.5
卫星平台:
Starlink v2.0 mini
覆盖范围:
全球
运营商:
太空探索技术公司
运营商所在国:
美国
制造商(研发单位):
太空探索技术公司
制造商所在国:
美国
使用方式:
暂无
Satellite Introduction
星链(Starlink)计划是由太空探索技术公司(SpaceX)提出的一个巨型低轨卫星互联网星座项目,计划在2019年至2024年间在太空搭建由约1.2万颗卫星组成的“星链”网络,其中1584颗将部署在地球上空550千米处的近地轨道,并从2020年开始工作。该卫星仍在工作。
2D Orbit Map
3D Orbit Map
Orbit Altitude Analysis Chart
Orbit Inclination Analysis Chart
Orbit Comprehensive Analysis Chart
View Comprehensive Chart
Conjunction Data List
Event ID Objects TCA Miss Dist (km) Collision Risk Probability Collision Risk Index (CRI) Action
CDM_260903-063405-985406-264022
2026-09-03T
06:34:12+0000
2.600 km
极远距离
1.102867E-6 低风险 0.36